Regional Weather Roundup
Issued by NWS

Home | Current Version | Previous Version | Graphics & Text | Print | Product List | Glossary On
Versions: 1 2 3 4 5 6 7 8 9 10 11 12 13 14 15 16 17 18 19 20 21 22 23 24 25 26 27 28 29 30 31 32 33 34 35 36 37 38 39 40 41 42 43 44 45 46 47 48 49 50
000
ASUS43 KLSX 061207
RWRMO

WEATHER SUMMARY FOR MISSOURI
NATIONAL WEATHER SERVICE SPRINGFIELD MO
600 AM CST FRI MAR 06 2015

NOTE: "FAIR" INDICATES FEW OR NO CLOUDS BELOW 12,000 FEET WITH NO
       SIGNIFICANT WEATHER AND/OR OBSTRUCTIONS TO VISIBILITY.
       CURRENT SKY AND/OR WEATHER CONDITIONS ARE NOT AVAILABLE FOR
       CHILLICOTHE AND FARMINGTON.

MOZ001>031-035>038-043-044-053-054-061300-
...NORTHERN AND WESTERN MISSOURI...

CITY           SKY/WX    TMP DP  RH WIND       PRES   REMARKS
KANSAS CTY INT CLEAR     28  18  66 S17G25    30.29F WCI  16
6HR MIN TEMP:  23; 6HR MAX TEMP:  28;

KANSAS C DTWN  CLEAR     33  17  51 SW17      30.32F WCI  22
6HR MIN TEMP:  26; 6HR MAX TEMP:  33;

LEE`S SUMMIT   CLEAR     25  16  68 SW10      30.33F WCI  15
6HR MIN TEMP:  24; 6HR MAX TEMP:  25;

ST JOSEPH      FAIR      27  18  69 SW13      30.28F WCI  16
6HR MIN TEMP:  22; 6HR MAX TEMP:  27;

CHILLICOTHE      N/A     25  13  60 S12G20    30.33F WCI  14
6HR MIN TEMP:  20; 6HR MAX TEMP:  25;

KIRKSVILLE     CLOUDY    20  11  68 S16       30.34F WCI   6
6HR MIN TEMP:  13; 6HR MAX TEMP:  20;


$$
MOZ066>068-077>081-088>096-101>105-061300-
...SOUTHWEST MISSOURI...

CITY           SKY/WX    TMP DP  RH WIND       PRES   REMARKS
SPRINGFIELD    CLEAR     21  12  68 S10       30.45S WCI  10
6HR MIN TEMP:  20; 6HR MAX TEMP:  22;

JOPLIN         FAIR      29  17  61 SW14      30.46S WCI  18
6HR MIN TEMP:  22; 6HR MAX TEMP:  29;


$$
MOZ032>034-039>042-045>050-055>058-069>072-061300-
...CENTRAL MISSOURI...

CITY           SKY/WX    TMP DP  RH WIND       PRES   REMARKS
COLUMBIA       CLEAR     18   9  68 S12       30.42F WCI   5
6HR MIN TEMP:  16; 6HR MAX TEMP:  18;

JEFFERSON CITY CLEAR     17   9  70 E7        30.47F WCI   8
6HR MIN TEMP:  15; 6HR MAX TEMP:  18;

ROLLA          CLEAR     20   8  60 S13       30.44F WCI   7
6HR MIN TEMP:  16; 6HR MAX TEMP:  20;

SEDALIA        CLEAR     26  13  57 S16G25    30.39F WCI  14
6HR MIN TEMP:  20; 6HR MAX TEMP:  27;

WHITEMAN AFB   CLEAR     24  15  70 SW15      30.36F WCI  11
WARRENSBURG    CLEAR     25  18  74 S12       30.37F WCI  14
OSAGE BEACH    CLEAR     19   9  63 S7        30.44F WCI  10

$$
MOZ051-052-059>065-061300-
...EAST CENTRAL MISSOURI...

CITY           SKY/WX    TMP DP  RH WIND       PRES   REMARKS
ST LOUIS INTL  FAIR      17   6  62 S9        30.52F WCI   6
6HR MIN TEMP:  15; 6HR MAX TEMP:  17;

SPIRIT OF STL  CLEAR     14   6  70 CALM      30.51F
6HR MIN TEMP:  12; 6HR MAX TEMP:  16;

ST CHARLES     CLEAR      8   4  83 E6        30.52F WCI  -2
6HR MIN TEMP:   7; 6HR MAX TEMP:  10;


$$
MOZ072>076-082>087-097>100-106>115-061300-
...SOUTH CENTRAL AND SOUTHEAST MISSOURI...

CITY           SKY/WX    TMP DP  RH WIND       PRES   REMARKS
CAPE GIRARDEAU FOG       -7  -9  91 W3        30.61R VSB 1/4
6HR MIN TEMP:  -8; 6HR MAX TEMP:   5;

FARMINGTON     PTCLDY    10   7  85 S5        30.54S WCI   2
6HR MIN TEMP:   9; 6HR MAX TEMP:  12;

POPLAR BLUFF   PTCLDY    10   4  76 CALM      30.60S
6HR MIN TEMP:   9; 6HR MAX TEMP:  15;

WEST PLAINS    CLEAR     15   6  67 S5        30.51S WCI   8
6HR MIN TEMP:  12; 6HR MAX TEMP:  17;


$$


USA.gov is the U.S. government's official web portal to all federal, state and local government web resources and services.